User: anonymous   Login
Location: Unspecified
(0.0000°N, 0.0000°E)
Time: 12:33:04
(UTC+01:00)
Language:

Helios 1A Rocket - Orbit

View from above orbital plane
View from above orbital plane
View from above satellite
View from above satellite

Ground track
Ground track

The orbit data is extracted from the following two-line orbital elements,

1 23608U 95033D   16343.87375764  .00000827  00000-0  79262-4 0  9990
2 23608  98.2151 260.7146 0017209 157.4637 202.7342 14.96043947159300
Epoch (UTC): 08 December 2016 20:58:12
Eccentricity: 0.0017209
inclination: 98.2151°
perigee height: 567 km
apogee height: 591 km
right ascension of ascending node: 260.7146°
argument of perigee: 157.4637°
revolutions per day: 14.96043947
mean anomaly at epoch: 202.7342°
orbit number at epoch: 15930

The dashed part of the orbit path shows where the satellite is in the earth's shadow,  

DLR